Time,TemperatureF,DewpointF,PressureIn,WindDirection,WindDirectionDegrees,WindSpeedMPH,WindSpeedGustMPH,Humidity,HourlyPrecipIn,Conditions,Clouds,dailyrainin,SoftwareType,DateUTC
2013-01-03 00:10:00,51.4,47.0,30.28,East,98,0.0,-999.0,85,-99.99,,,0.00,weatherlink.com 1.10,2013-01-02 22:10:00,
2013-01-03 00:25:00,51.6,47.0,30.28,East,98,0.0,-999.0,84,-99.99,,,0.00,weatherlink.com 1.10,2013-01-02 22:25:00,
2013-01-03 00:40:00,51.3,47.0,30.28,East,98,1.0,-999.0,84,-99.99,,,0.00,weatherlink.com 1.10,2013-01-02 22:40:00,
2013-01-03 00:55:00,51.2,47.0,30.28,East,98,0.0,-999.0,85,-99.99,,,0.00,weatherlink.com 1.10,2013-01-02 22:55:00,
2013-01-03 01:10:00,50.9,47.0,30.29,East,98,0.0,-999.0,85,-99.99,,,0.00,weatherlink.com 1.10,2013-01-02 23:10:00,
2013-01-03 01:25:00,50.8,47.0,30.29,East,98,0.0,-999.0,85,-99.99,,,0.00,weatherlink.com 1.10,2013-01-02 23:25:00,
2013-01-03 01:40:00,50.8,47.0,30.29,East,98,0.0,-999.0,86,-99.99,,,0.00,weatherlink.com 1.10,2013-01-02 23:40:00,
2013-01-03 01:55:00,50.4,46.0,30.29,East,98,0.0,-999.0,86,-99.99,,,0.00,weatherlink.com 1.10,2013-01-02 23:55:00,
2013-01-03 02:10:00,50.3,46.0,30.30,East,98,0.0,-999.0,86,-99.99,,,0.00,weatherlink.com 1.10,2013-01-03 00:10:00,
2013-01-03 02:25:00,50.3,46.0,30.30,East,98,0.0,-999.0,86,-99.99,,,0.00,weatherlink.com 1.10,2013-01-03 00:25:00,
2013-01-03 02:40:00,50.3,46.0,30.30,East,98,0.0,-999.0,86,-99.99,,,0.00,weatherlink.com 1.10,2013-01-03 00:40:00,
2013-01-03 02:55:00,50.2,46.0,30.30,East,98,0.0,-999.0,86,-99.99,,,0.00,weatherlink.com 1.10,2013-01-03 00:55:00,
2013-01-03 03:10:00,50.1,46.0,30.31,East,97,2.0,-999.0,86,-99.99,,,0.00,weatherlink.com 1.10,2013-01-03 01:10:00,
2013-01-03 03:25:00,50.2,46.0,30.31,East,98,0.0,-999.0,86,-99.99,,,0.00,weatherlink.com 1.10,2013-01-03 01:25:00,
2013-01-03 03:40:00,50.2,46.0,30.31,East,98,0.0,-999.0,86,-99.99,,,0.00,weatherlink.com 1.10,2013-01-03 01:40:00,
2013-01-03 03:55:00,50.0,46.0,30.32,East,98,0.0,-999.0,86,-99.99,,,0.00,weatherlink.com 1.10,2013-01-03 01:55:00,
2013-01-03 04:10:00,50.0,46.0,30.31,East,98,0.0,-999.0,86,-99.99,,,0.00,weatherlink.com 1.10,2013-01-03 02:10:00,
2013-01-03 04:25:00,50.1,46.0,30.31,East,98,0.0,-999.0,87,-99.99,,,0.00,weatherlink.com 1.10,2013-01-03 02:25:00,
2013-01-03 04:41:00,49.9,46.0,30.31,East,98,0.0,-999.0,87,-99.99,,,0.00,weatherlink.com 1.10,2013-01-03 02:41:00,
2013-01-03 04:55:00,49.9,46.0,30.31,East,98,0.0,-999.0,87,-99.99,,,0.00,weatherlink.com 1.10,2013-01-03 02:55:00,
2013-01-03 05:10:00,49.9,46.0,30.31,East,98,0.0,-999.0,87,-99.99,,,0.00,weatherlink.com 1.10,2013-01-03 03:10:00,
2013-01-03 05:25:00,49.6,46.0,30.31,East,97,0.0,-999.0,87,-99.99,,,0.00,weatherlink.com 1.10,2013-01-03 03:25:00,
2013-01-03 05:55:00,49.4,45.0,30.32,East,98,0.0,-999.0,86,-99.99,,,0.00,weatherlink.com 1.10,2013-01-03 03:55:00,
2013-01-03 06:10:00,49.3,45.0,30.32,East,98,0.0,-999.0,85,-99.99,,,0.00,weatherlink.com 1.10,2013-01-03 04:10:00,
2013-01-03 06:25:00,49.5,45.0,30.32,East,97,3.0,-999.0,83,-99.99,,,0.00,weatherlink.com 1.10,2013-01-03 04:25:00,
2013-01-03 06:40:00,49.4,44.0,30.33,East,98,0.0,-999.0,83,-99.99,,,0.00,weatherlink.com 1.10,2013-01-03 04:40:00,
2013-01-03 06:55:00,49.3,44.0,30.33,East,98,0.0,-999.0,83,-99.99,,,0.00,weatherlink.com 1.10,2013-01-03 04:55:00,
2013-01-03 07:25:00,49.4,44.0,30.34,East,98,2.0,-999.0,81,-99.99,,,0.00,weatherlink.com 1.10,2013-01-03 05:25:00,
2013-01-03 07:40:00,49.4,44.0,30.34,East,98,0.0,-999.0,81,-99.99,,,0.00,weatherlink.com 1.10,2013-01-03 05:40:00,
2013-01-03 07:55:00,49.3,44.0,30.34,East,98,0.0,-999.0,82,-99.99,,,0.00,weatherlink.com 1.10,2013-01-03 05:55:00,
2013-01-03 08:10:00,49.3,44.0,30.35,East,98,0.0,-999.0,82,-99.99,,,0.00,weatherlink.com 1.10,2013-01-03 06:10:00,
2013-01-03 08:25:00,49.1,45.0,30.35,East,98,0.0,-999.0,84,-99.99,,,0.00,weatherlink.com 1.10,2013-01-03 06:25:00,
2013-01-03 08:40:00,49.5,45.0,30.35,East,98,0.0,-999.0,84,-99.99,,,0.00,weatherlink.com 1.10,2013-01-03 06:40:00,
2013-01-03 08:55:00,51.0,46.0,30.35,East,98,0.0,-999.0,83,-99.99,,,0.00,weatherlink.com 1.10,2013-01-03 06:55:00,
2013-01-03 09:10:00,52.4,47.0,30.35,East,97,0.0,-999.0,81,-99.99,,,0.00,weatherlink.com 1.10,2013-01-03 07:10:00,
2013-01-03 09:25:00,53.6,47.0,30.36,East,98,0.0,-999.0,79,-99.99,,,0.00,weatherlink.com 1.10,2013-01-03 07:25:00,
2013-01-03 09:40:00,54.8,47.0,30.36,East,98,0.0,-999.0,76,-99.99,,,0.00,weatherlink.com 1.10,2013-01-03 07:40:00,
2013-01-03 09:55:00,55.3,47.0,30.37,East,98,0.0,-999.0,74,-99.99,,,0.00,weatherlink.com 1.10,2013-01-03 07:55:00,
2013-01-03 10:10:00,55.1,47.0,30.37,East,98,0.0,-999.0,75,-99.99,,,0.00,weatherlink.com 1.10,2013-01-03 08:10:00,
2013-01-03 10:25:00,55.0,48.0,30.37,East,98,0.0,-999.0,76,-99.99,,,0.00,weatherlink.com 1.10,2013-01-03 08:25:00,
2013-01-03 10:40:00,55.1,48.0,30.37,East,98,0.0,-999.0,77,-99.99,,,0.00,weatherlink.com 1.10,2013-01-03 08:40:00,
2013-01-03 10:55:00,55.8,49.0,30.37,East,98,0.0,-999.0,77,-99.99,,,0.00,weatherlink.com 1.10,2013-01-03 08:55:00,
2013-01-03 11:11:00,57.2,50.0,30.36,East,79,0.0,-999.0,77,-99.99,,,0.00,weatherlink.com 1.10,2013-01-03 09:11:00,
2013-01-03 11:26:00,57.5,49.0,30.37,East,79,0.0,-999.0,73,-99.99,,,0.00,weatherlink.com 1.10,2013-01-03 09:26:00,
2013-01-03 11:41:00,57.9,49.0,30.37,East,79,0.0,-999.0,71,-99.99,,,0.00,weatherlink.com 1.10,2013-01-03 09:41:00,
2013-01-03 11:56:00,57.8,47.0,30.36,WNW,296,1.0,-999.0,68,-99.99,,,0.00,weatherlink.com 1.10,2013-01-03 09:56:00,
2013-01-03 12:11:00,56.9,48.0,30.36,West,281,3.0,-999.0,72,-99.99,,,0.00,weatherlink.com 1.10,2013-01-03 10:11:00,
2013-01-03 12:26:00,56.7,49.0,30.36,SW,214,1.0,-999.0,75,-99.99,,,0.00,weatherlink.com 1.10,2013-01-03 10:26:00,
2013-01-03 12:41:00,56.9,49.0,30.35,SW,222,0.0,-999.0,74,-99.99,,,0.00,weatherlink.com 1.10,2013-01-03 10:41:00,
2013-01-03 12:56:00,57.0,48.0,30.35,SW,222,0.0,-999.0,73,-99.99,,,0.00,weatherlink.com 1.10,2013-01-03 10:56:00,
2013-01-03 13:11:00,57.3,48.0,30.34,SSE,160,0.0,-999.0,72,-99.99,,,0.00,weatherlink.com 1.10,2013-01-03 11:11:00,
2013-01-03 13:26:00,57.8,48.0,30.34,SSE,160,5.0,-999.0,70,-99.99,,,0.00,weatherlink.com 1.10,2013-01-03 11:26:00,
2013-01-03 13:41:00,58.0,49.0,30.34,SSE,165,5.0,-999.0,71,-99.99,,,0.00,weatherlink.com 1.10,2013-01-03 11:41:00,
2013-01-03 13:56:00,57.9,49.0,30.33,South,190,4.0,-999.0,71,-99.99,,,0.00,weatherlink.com 1.10,2013-01-03 11:56:00,
2013-01-03 14:11:00,58.0,48.0,30.33,South,184,0.0,-999.0,70,-99.99,,,0.00,weatherlink.com 1.10,2013-01-03 12:11:00,
2013-01-03 14:26:00,59.2,49.0,30.33,South,184,0.0,-999.0,68,-99.99,,,0.00,weatherlink.com 1.10,2013-01-03 12:26:00,
2013-01-03 14:41:00,58.4,47.0,30.33,South,171,0.0,-999.0,66,-99.99,,,0.00,weatherlink.com 1.10,2013-01-03 12:41:00,
2013-01-03 14:56:00,58.4,48.0,30.33,South,179,1.0,-999.0,68,-99.99,,,0.00,weatherlink.com 1.10,2013-01-03 12:56:00,
2013-01-03 15:11:00,58.0,49.0,30.33,SSW,213,4.0,-999.0,71,-99.99,,,0.00,weatherlink.com 1.10,2013-01-03 13:11:00,
2013-01-03 15:26:00,57.6,49.0,30.33,SSW,194,8.0,-999.0,72,-99.99,,,0.00,weatherlink.com 1.10,2013-01-03 13:26:00,
2013-01-03 15:41:00,57.2,48.0,30.33,West,265,7.0,-999.0,72,-99.99,,,0.00,weatherlink.com 1.10,2013-01-03 13:41:00,
2013-01-03 15:56:00,56.6,48.0,30.32,South,191,6.0,-999.0,73,-99.99,,,0.00,weatherlink.com 1.10,2013-01-03 13:56:00,
2013-01-03 16:11:00,56.4,48.0,30.32,South,174,0.0,-999.0,74,-99.99,,,0.00,weatherlink.com 1.10,2013-01-03 14:11:00,
2013-01-03 16:26:00,56.3,48.0,30.32,SSE,163,2.0,-999.0,74,-99.99,,,0.00,weatherlink.com 1.10,2013-01-03 14:26:00,
2013-01-03 16:41:00,56.2,48.0,30.32,South,186,4.0,-999.0,74,-99.99,,,0.00,weatherlink.com 1.10,2013-01-03 14:41:00,
2013-01-03 16:56:00,56.1,48.0,30.32,South,186,0.0,-999.0,74,-99.99,,,0.00,weatherlink.com 1.10,2013-01-03 14:56:00,
2013-01-03 17:11:00,55.8,47.0,30.32,ENE,69,0.0,-999.0,71,-99.99,,,0.00,weatherlink.com 1.10,2013-01-03 15:11:00,
2013-01-03 17:26:00,55.4,46.0,30.32,ENE,64,0.0,-999.0,71,-99.99,,,0.00,weatherlink.com 1.10,2013-01-03 15:26:00,
2013-01-03 17:41:00,55.1,46.0,30.33,ENE,64,0.0,-999.0,71,-99.99,,,0.00,weatherlink.com 1.10,2013-01-03 15:41:00,
2013-01-03 17:56:00,54.8,45.0,30.33,NE,55,5.0,-999.0,70,-99.99,,,0.00,weatherlink.com 1.10,2013-01-03 15:56:00,
2013-01-03 18:11:00,54.6,45.0,30.33,ENE,58,0.0,-999.0,71,-99.99,,,0.00,weatherlink.com 1.10,2013-01-03 16:11:00,
2013-01-03 18:26:00,54.4,46.0,30.33,ENE,57,0.0,-999.0,72,-99.99,,,0.00,weatherlink.com 1.10,2013-01-03 16:26:00,
2013-01-03 18:41:00,53.9,45.0,30.34,NE,53,0.0,-999.0,72,-99.99,,,0.00,weatherlink.com 1.10,2013-01-03 16:41:00,
2013-01-03 18:56:00,53.8,45.0,30.34,NE,53,1.0,-999.0,72,-99.99,,,0.00,weatherlink.com 1.10,2013-01-03 16:56:00,
2013-01-03 19:11:00,53.8,45.0,30.34,NE,53,0.0,-999.0,72,-99.99,,,0.00,weatherlink.com 1.10,2013-01-03 17:11:00,
2013-01-03 19:26:00,53.6,45.0,30.34,NE,53,0.0,-999.0,73,-99.99,,,0.00,weatherlink.com 1.10,2013-01-03 17:26:00,
2013-01-03 19:41:00,53.5,45.0,30.34,NE,53,0.0,-999.0,73,-99.99,,,0.00,weatherlink.com 1.10,2013-01-03 17:41:00,
2013-01-03 19:56:00,53.3,45.0,30.34,NE,53,0.0,-999.0,74,-99.99,,,0.00,weatherlink.com 1.10,2013-01-03 17:56:00,
2013-01-03 20:11:00,53.2,45.0,30.34,NE,53,0.0,-999.0,75,-99.99,,,0.00,weatherlink.com 1.10,2013-01-03 18:11:00,
2013-01-03 20:26:00,53.1,45.0,30.34,NE,53,0.0,-999.0,75,-99.99,,,0.00,weatherlink.com 1.10,2013-01-03 18:26:00,
2013-01-03 20:41:00,52.8,45.0,30.34,NE,53,0.0,-999.0,75,-99.99,,,0.00,weatherlink.com 1.10,2013-01-03 18:41:00,
2013-01-03 20:56:00,52.7,45.0,30.34,NE,53,0.0,-999.0,76,-99.99,,,0.00,weatherlink.com 1.10,2013-01-03 18:56:00,
2013-01-03 21:11:00,52.5,45.0,30.34,NE,53,0.0,-999.0,77,-99.99,,,0.00,weatherlink.com 1.10,2013-01-03 19:11:00,
2013-01-03 21:56:00,51.9,43.0,30.33,NE,53,0.0,-999.0,71,-99.99,,,0.00,weatherlink.com 1.10,2013-01-03 19:56:00,
2013-01-03 22:11:00,51.9,40.0,30.33,NE,44,0.0,-999.0,65,-99.99,,,0.00,weatherlink.com 1.10,2013-01-03 20:11:00,
2013-01-03 22:26:00,52.4,38.0,30.33,NE,45,1.0,-999.0,58,-99.99,,,0.00,weatherlink.com 1.10,2013-01-03 20:26:00,
2013-01-03 22:41:00,52.6,38.0,30.32,NE,45,4.0,-999.0,57,-99.99,,,0.00,weatherlink.com 1.10,2013-01-03 20:41:00,
2013-01-03 22:56:00,52.6,37.0,30.32,NE,44,0.0,-999.0,55,-99.99,,,0.00,weatherlink.com 1.10,2013-01-03 20:56:00,
2013-01-03 23:11:00,52.1,37.0,30.32,NE,44,0.0,-999.0,57,-99.99,,,0.00,weatherlink.com 1.10,2013-01-03 21:11:00,
2013-01-03 23:26:00,51.6,37.0,30.32,NE,40,0.0,-999.0,58,-99.99,,,0.00,weatherlink.com 1.10,2013-01-03 21:26:00,
2013-01-03 23:41:00,51.3,37.0,30.31,NE,42,0.0,-999.0,58,-99.99,,,0.00,weatherlink.com 1.10,2013-01-03 21:41:00,
2013-01-03 23:56:00,51.4,36.0,30.31,NE,42,0.0,-999.0,55,-99.99,,,0.00,weatherlink.com 1.10,2013-01-03 21:56:00,